Weather History for Buffalo, NY

Change the Weather History Date:

Monday, August 5, 2013

  Actual Average Record
Temperature  
Mean Temperature 62 °F 71 °F  
Max Temperature 73 °F 80 °F 93 °F (1947)
Min Temperature 50 °F 62 °F 45 °F (1972)
Degree Days  
Heating Degree Days 3 0  
Month to date heating degree days 3 0  
Since 1 June heating degree days 73 73  
Since 1 July heating degree days 9 9  
Cooling Degree Days 0 6  
Month to date cooling degree days 10 30  
Year to date cooling degree days 420 356  
Since 1 June cooling degree days 349 330  
Growing Degree Days 12 (Base 50)    
Moisture  
Dew Point 49 °F    
Average Humidity 67    
Maximum Humidity 89    
Minimum Humidity 44    
Precipitation  
Precipitation 0.00 in 0.10 in 1.34 in (1885)
Month to date precipitation 0.90 0.55  
Year to date precipitation 25.02 22.45  
Snow  
Snow 0.00 in 0.00 in 0.00 in ()
Month to date snowfall 0.0 0.0  
Since 1 June snowfall 0.0 0.0  
Since 1 July snowfall 0.0 0.0  
Snow Depth 0.00 in    
Sea Level Pressure  
Sea Level Pressure 30.08 in    
Wind  
Wind Speed 6 mph (SW)    
Max Wind Speed 12 mph    
Max Gust Speed 16 mph    
Visibility 10 miles    
Events      
T = Trace of Precipitation, MM = Missing Value Source: NWS Daily Summary

Daily Weather History Graph

Daily Weather History Graph

Search for Another Location

Airport:

Trip Planner

Search our weather history database for the weather conditions in past years. The results will help you decide how hot, cold, wet, or windy it might be!

Date:

Astronomy

Aug. 05, 2013 Rise Set
Actual Time 6:10 AM EDT 8:30 PM EDT
Civil Twilight 5:38 AM EDT 9:02 PM EDT
Nautical Twilight 4:59 AM EDT 9:41 PM EDT
Astronomical Twilight 4:15 AM EDT 10:24 PM EDT
Moon 5:04 AM EDT (8/5) 7:28 PM EDT (8/5)
Length of Visible Light 15h 23m
Length of Day
14h 20m
Waning Crescent, 1% of the Moon is Illuminated
Aug 5
Waning Crescent
Aug 6
New
Aug 14
First Quarter
Aug 20
Full
Aug 28
Last Quarter

Hourly Weather History & Observations

Time (EDT) Temp. Dew Point Humidity Pressure Visibility Wind Dir Wind Speed Gust Speed Precip Events Conditions
12:54 AM 57.9 °F 46.9 °F 67% 30.09 in 10.0 mi NW 5.8 mph - N/A   Partly Cloudy
1:54 AM 55.9 °F 48.0 °F 75% 30.08 in 10.0 mi NNW 4.6 mph - N/A   Partly Cloudy
2:54 AM 55.0 °F 48.0 °F 77% 30.08 in 10.0 mi SSE 3.5 mph - N/A   Partly Cloudy
3:54 AM 51.1 °F 48.0 °F 89% 30.09 in 10.0 mi South 5.8 mph - N/A   Partly Cloudy
4:54 AM 51.1 °F 48.0 °F 89% 30.10 in 10.0 mi South 4.6 mph - N/A   Clear
5:54 AM 50.0 °F 46.9 °F 89% 30.11 in 10.0 mi South 3.5 mph - N/A   Partly Cloudy
6:54 AM 51.1 °F 48.0 °F 89% 30.12 in 10.0 mi South 5.8 mph - N/A   Scattered Clouds
7:54 AM 55.0 °F 50.0 °F 83% 30.13 in 10.0 mi South 4.6 mph - N/A   Scattered Clouds
8:54 AM 61.0 °F 52.0 °F 72% 30.14 in 10.0 mi SSW 8.1 mph - N/A   Scattered Clouds
9:54 AM 66.0 °F 52.0 °F 60% 30.13 in 10.0 mi SW 9.2 mph - N/A   Scattered Clouds
10:54 AM 66.9 °F 50.0 °F 54% 30.12 in 10.0 mi Calm Calm - N/A   Scattered Clouds
11:54 AM 70.0 °F 51.1 °F 51% 30.11 in 10.0 mi West 6.9 mph - N/A   Scattered Clouds
12:54 PM 69.1 °F 50.0 °F 51% 30.09 in 10.0 mi West 9.2 mph - N/A   Mostly Cloudy
1:54 PM 71.1 °F 50.0 °F 47% 30.08 in 10.0 mi SW 9.2 mph - N/A   Mostly Cloudy
2:54 PM 71.1 °F 48.9 °F 45% 30.07 in 10.0 mi West 6.9 mph - N/A   Mostly Cloudy
3:54 PM 72.0 °F 48.0 °F 43% 30.06 in 10.0 mi WSW 8.1 mph - N/A   Mostly Cloudy
4:54 PM 72.0 °F 48.0 °F 43% 30.06 in 10.0 mi WSW 9.2 mph - N/A   Mostly Cloudy
5:54 PM 72.0 °F 48.0 °F 43% 30.05 in 10.0 mi West 8.1 mph - N/A   Mostly Cloudy
6:54 PM 71.1 °F 48.9 °F 45% 30.04 in 10.0 mi SW 4.6 mph - N/A   Mostly Cloudy
7:54 PM 68.0 °F 48.0 °F 49% 30.04 in 10.0 mi SW 9.2 mph - N/A   Scattered Clouds
8:54 PM 64.9 °F 51.1 °F 61% 30.04 in 10.0 mi WSW 6.9 mph - N/A   Scattered Clouds
9:54 PM 66.0 °F 50.0 °F 56% 30.04 in 10.0 mi Calm Calm - N/A   Partly Cloudy
10:54 PM 63.0 °F 52.0 °F 67% 30.03 in 10.0 mi South 4.6 mph - N/A   Partly Cloudy
11:54 PM 60.1 °F 53.1 °F 78% 30.02 in 10.0 mi South 4.6 mph - N/A   Partly Cloudy